Time,TemperatureF,DewpointF,PressureIn,WindDirection,WindDirectionDegrees,WindSpeedMPH,WindSpeedGustMPH,Humidity,HourlyPrecipIn,Conditions,Clouds,dailyrainin,SoftwareType,DateUTC
2013-02-04 00:02:00,22.7,17.5,30.27,North,0,0.0,0.0,80,0.00,,,0.00,WUHU216HW,2013-02-04 06:02:00,
2013-02-04 00:07:00,22.7,17.5,30.26,North,0,0.0,0.0,80,0.00,,,0.00,WUHU216HW,2013-02-04 06:07:00,
2013-02-04 00:12:00,22.7,17.5,30.26,North,0,0.0,0.0,80,0.00,,,0.00,WUHU216HW,2013-02-04 06:12:00,
2013-02-04 00:17:00,22.7,17.5,30.26,North,0,0.0,0.0,80,0.00,,,0.00,WUHU216HW,2013-02-04 06:17:00,
2013-02-04 00:22:00,22.7,17.5,30.25,North,0,0.0,0.0,80,0.00,,,0.00,WUHU216HW,2013-02-04 06:22:00,
2013-02-04 00:27:00,22.7,17.5,30.25,North,0,0.0,0.0,80,0.00,,,0.00,WUHU216HW,2013-02-04 06:27:00,
2013-02-04 00:32:00,22.7,17.5,30.24,North,0,0.0,0.0,80,0.00,,,0.00,WUHU216HW,2013-02-04 06:32:00,
2013-02-04 00:37:00,22.9,17.6,30.24,North,0,0.0,0.0,80,0.00,,,0.00,WUHU216HW,2013-02-04 06:37:00,
2013-02-04 00:42:00,22.9,17.6,30.24,North,0,0.0,0.0,80,0.00,,,0.00,WUHU216HW,2013-02-04 06:42:00,
2013-02-04 00:47:00,22.9,17.6,30.24,North,0,0.0,0.0,80,0.00,,,0.00,WUHU216HW,2013-02-04 06:47:00,
2013-02-04 00:52:00,23.0,17.8,30.23,North,0,0.0,0.0,80,0.00,,,0.00,WUHU216HW,2013-02-04 06:52:00,
2013-02-04 00:57:00,23.0,17.8,30.23,North,0,0.0,0.0,80,0.00,,,0.00,WUHU216HW,2013-02-04 06:57:00,
2013-02-04 01:02:00,23.2,18.0,30.22,North,0,0.0,0.0,80,0.00,,,0.00,WUHU216HW,2013-02-04 07:02:00,
2013-02-04 01:07:00,23.2,18.0,30.22,North,0,0.0,0.0,80,0.00,,,0.00,WUHU216HW,2013-02-04 07:07:00,
2013-02-04 01:12:00,23.4,18.2,30.22,North,0,0.0,0.0,80,0.00,,,0.00,WUHU216HW,2013-02-04 07:12:00,
2013-02-04 01:17:00,23.4,17.9,30.21,North,0,0.0,0.0,79,0.00,,,0.00,WUHU216HW,2013-02-04 07:17:00,
2013-02-04 01:22:00,23.4,18.2,30.21,North,0,0.0,0.0,80,0.00,,,0.00,WUHU216HW,2013-02-04 07:22:00,
2013-02-04 01:27:00,23.8,18.3,30.20,North,0,0.0,0.0,79,0.00,,,0.00,WUHU216HW,2013-02-04 07:27:00,
2013-02-04 01:32:00,23.8,18.3,30.20,North,0,0.0,0.0,79,0.00,,,0.00,WUHU216HW,2013-02-04 07:32:00,
2013-02-04 01:37:00,23.9,18.4,30.20,North,0,0.0,0.0,79,0.00,,,0.00,WUHU216HW,2013-02-04 07:37:00,
2013-02-04 01:42:00,24.1,18.5,30.20,North,0,0.0,0.0,79,0.00,,,0.00,WUHU216HW,2013-02-04 07:42:00,
2013-02-04 01:47:00,24.1,18.5,30.19,North,0,0.0,0.0,79,0.00,,,0.00,WUHU216HW,2013-02-04 07:47:00,
2013-02-04 01:52:00,24.1,18.5,30.19,North,0,0.0,0.0,79,0.00,,,0.00,WUHU216HW,2013-02-04 07:52:00,
2013-02-04 01:57:00,24.3,18.7,30.18,North,0,0.0,0.0,79,0.00,,,0.00,WUHU216HW,2013-02-04 07:57:00,
2013-02-04 02:02:00,24.3,18.7,30.18,North,0,0.0,0.0,79,0.00,,,0.00,WUHU216HW,2013-02-04 08:02:00,
2013-02-04 02:07:00,24.3,18.7,30.18,North,0,0.0,0.0,79,0.00,,,0.00,WUHU216HW,2013-02-04 08:07:00,
2013-02-04 02:12:00,24.3,18.7,30.18,North,0,0.0,0.0,79,0.00,,,0.00,WUHU216HW,2013-02-04 08:12:00,
2013-02-04 02:17:00,24.5,18.9,30.18,North,0,0.0,0.0,79,0.00,,,0.00,WUHU216HW,2013-02-04 08:17:00,
2013-02-04 02:22:00,24.5,18.9,30.18,North,0,0.0,0.0,79,0.00,,,0.00,WUHU216HW,2013-02-04 08:22:00,
2013-02-04 02:27:00,24.7,19.1,30.17,North,0,0.0,0.0,79,0.00,,,0.00,WUHU216HW,2013-02-04 08:27:00,
2013-02-04 02:32:00,24.8,19.3,30.17,North,0,0.0,0.0,79,0.00,,,0.00,WUHU216HW,2013-02-04 08:32:00,
2013-02-04 02:37:00,25.0,19.4,30.17,North,0,0.0,0.0,79,0.00,,,0.00,WUHU216HW,2013-02-04 08:37:00,
2013-02-04 02:42:00,25.0,19.4,30.16,North,0,0.0,0.0,79,0.00,,,0.00,WUHU216HW,2013-02-04 08:42:00,
2013-02-04 02:47:00,25.2,19.6,30.16,North,0,0.0,0.0,79,0.00,,,0.00,WUHU216HW,2013-02-04 08:47:00,
2013-02-04 02:52:00,25.2,19.6,30.16,North,0,0.0,0.0,79,0.00,,,0.00,WUHU216HW,2013-02-04 08:52:00,
2013-02-04 02:57:00,25.4,19.8,30.15,North,0,0.0,0.0,79,0.00,,,0.00,WUHU216HW,2013-02-04 08:57:00,
2013-02-04 03:02:00,25.4,19.8,30.15,North,0,0.0,0.0,79,0.00,,,0.00,WUHU216HW,2013-02-04 09:02:00,
2013-02-04 03:07:00,25.6,19.6,30.15,North,0,0.0,0.0,78,0.00,,,0.00,WUHU216HW,2013-02-04 09:07:00,
2013-02-04 03:12:00,25.6,19.6,30.15,North,0,0.0,0.0,78,0.00,,,0.00,WUHU216HW,2013-02-04 09:12:00,
2013-02-04 03:17:00,25.6,19.6,30.15,North,0,0.0,0.0,78,0.00,,,0.00,WUHU216HW,2013-02-04 09:17:00,
2013-02-04 03:22:00,25.7,19.8,30.15,North,0,0.0,0.0,78,0.00,,,0.00,WUHU216HW,2013-02-04 09:22:00,
2013-02-04 03:27:00,25.7,19.8,30.14,North,0,0.0,0.0,78,0.00,,,0.00,WUHU216HW,2013-02-04 09:27:00,
2013-02-04 03:32:00,25.9,20.0,30.14,North,0,0.0,0.0,78,0.00,,,0.00,WUHU216HW,2013-02-04 09:32:00,
2013-02-04 03:37:00,25.9,20.0,30.14,North,0,0.0,0.0,78,0.00,,,0.00,WUHU216HW,2013-02-04 09:37:00,
2013-02-04 03:42:00,25.9,20.0,30.14,North,0,0.0,0.0,78,0.00,,,0.00,WUHU216HW,2013-02-04 09:42:00,
2013-02-04 03:47:00,26.1,20.2,30.14,North,0,0.0,0.0,78,0.00,,,0.00,WUHU216HW,2013-02-04 09:47:00,
2013-02-04 03:52:00,26.1,20.2,30.14,North,0,0.0,0.0,78,0.00,,,0.00,WUHU216HW,2013-02-04 09:52:00,
2013-02-04 03:57:00,26.1,20.2,30.14,North,0,0.0,0.0,78,0.00,,,0.00,WUHU216HW,2013-02-04 09:57:00,
2013-02-04 04:02:00,26.3,20.4,30.14,North,0,0.0,0.0,78,0.00,,,0.00,WUHU216HW,2013-02-04 10:02:00,
2013-02-04 04:07:00,26.3,20.0,30.14,North,0,0.0,0.0,77,0.00,,,0.00,WUHU216HW,2013-02-04 10:07:00,
2013-02-04 04:12:00,26.3,20.0,30.14,North,0,0.0,0.0,77,0.00,,,0.00,WUHU216HW,2013-02-04 10:12:00,
2013-02-04 04:17:00,26.3,20.0,30.14,North,0,0.0,0.0,77,0.00,,,0.00,WUHU216HW,2013-02-04 10:17:00,
2013-02-04 04:22:00,26.3,20.0,30.14,North,0,0.0,0.0,77,0.00,,,0.00,WUHU216HW,2013-02-04 10:22:00,
2013-02-04 04:27:00,26.3,20.0,30.14,North,0,0.0,0.0,77,0.00,,,0.00,WUHU216HW,2013-02-04 10:27:00,
2013-02-04 04:32:00,26.3,20.0,30.14,North,0,0.0,0.0,77,0.00,,,0.00,WUHU216HW,2013-02-04 10:32:00,
2013-02-04 04:37:00,26.3,20.0,30.13,North,0,0.0,0.0,77,0.00,,,0.00,WUHU216HW,2013-02-04 10:37:00,
2013-02-04 04:42:00,26.3,20.0,30.13,North,0,0.0,0.0,77,0.00,,,0.00,WUHU216HW,2013-02-04 10:42:00,
2013-02-04 04:47:00,26.3,20.0,30.13,North,0,0.0,0.0,77,0.00,,,0.00,WUHU216HW,2013-02-04 10:47:00,
2013-02-04 04:52:00,26.3,20.0,30.12,North,0,0.0,0.0,77,0.00,,,0.00,WUHU216HW,2013-02-04 10:52:00,
2013-02-04 04:57:00,26.3,20.0,30.13,North,0,0.0,0.0,77,0.00,,,0.00,WUHU216HW,2013-02-04 10:57:00,
2013-02-04 05:02:00,26.3,20.0,30.13,North,0,0.0,0.0,77,0.00,,,0.00,WUHU216HW,2013-02-04 11:02:00,
2013-02-04 05:07:00,26.3,20.0,30.12,North,0,0.0,0.0,77,0.00,,,0.00,WUHU216HW,2013-02-04 11:07:00,
2013-02-04 05:12:00,26.3,20.0,30.12,North,0,0.0,0.0,77,0.00,,,0.00,WUHU216HW,2013-02-04 11:12:00,
2013-02-04 05:17:00,26.3,20.0,30.12,North,0,0.0,0.0,77,0.00,,,0.00,WUHU216HW,2013-02-04 11:17:00,
2013-02-04 05:22:00,26.3,20.0,30.12,North,0,0.0,0.0,77,0.00,,,0.00,WUHU216HW,2013-02-04 11:22:00,
2013-02-04 05:27:00,26.3,20.0,30.11,North,0,0.0,0.0,77,0.00,,,0.00,WUHU216HW,2013-02-04 11:27:00,
2013-02-04 05:32:00,26.3,20.0,30.11,North,0,0.0,0.0,77,0.00,,,0.00,WUHU216HW,2013-02-04 11:32:00,
2013-02-04 05:37:00,26.3,20.0,30.11,North,0,0.0,0.0,77,0.00,,,0.00,WUHU216HW,2013-02-04 11:37:00,
2013-02-04 05:42:00,26.3,20.0,30.11,North,0,0.0,0.0,77,0.00,,,0.00,WUHU216HW,2013-02-04 11:42:00,
2013-02-04 05:47:00,26.3,20.0,30.11,North,0,0.0,0.0,77,0.00,,,0.00,WUHU216HW,2013-02-04 11:47:00,
2013-02-04 05:52:00,26.3,20.0,30.11,North,0,0.0,0.0,77,0.00,,,0.00,WUHU216HW,2013-02-04 11:52:00,
2013-02-04 05:57:00,26.3,20.0,30.10,North,0,0.0,0.0,77,0.00,,,0.00,WUHU216HW,2013-02-04 11:57:00,
2013-02-04 06:02:00,26.3,20.0,30.10,North,0,0.0,0.0,77,0.00,,,0.00,WUHU216HW,2013-02-04 12:02:00,
2013-02-04 06:07:00,26.1,19.8,30.11,North,0,0.0,0.0,77,0.00,,,0.00,WUHU216HW,2013-02-04 12:07:00,
2013-02-04 06:12:00,25.9,20.0,30.10,North,0,0.0,0.0,78,0.00,,,0.00,WUHU216HW,2013-02-04 12:12:00,
2013-02-04 06:17:00,25.9,20.0,30.11,North,0,0.0,0.0,78,0.00,,,0.00,WUHU216HW,2013-02-04 12:17:00,
2013-02-04 06:22:00,25.7,19.8,30.11,North,0,0.0,0.0,78,0.00,,,0.00,WUHU216HW,2013-02-04 12:22:00,
2013-02-04 06:27:00,25.6,19.6,30.12,North,0,0.0,0.0,78,0.00,,,0.00,WUHU216HW,2013-02-04 12:27:00,
2013-02-04 06:32:00,25.6,19.6,30.12,North,0,0.0,0.0,78,0.00,,,0.00,WUHU216HW,2013-02-04 12:32:00,
2013-02-04 06:37:00,25.6,20.0,30.12,North,0,0.0,0.0,79,0.00,,,0.00,WUHU216HW,2013-02-04 12:37:00,
2013-02-04 06:42:00,25.6,20.0,30.12,North,0,0.0,0.0,79,0.00,,,0.00,WUHU216HW,2013-02-04 12:42:00,
2013-02-04 06:47:00,25.6,20.0,30.11,North,0,0.0,0.0,79,0.00,,,0.00,WUHU216HW,2013-02-04 12:47:00,
2013-02-04 06:52:00,25.4,19.8,30.11,North,0,0.0,0.0,79,0.00,,,0.00,WUHU216HW,2013-02-04 12:52:00,
2013-02-04 06:57:00,25.2,19.6,30.11,North,0,0.0,0.0,79,0.00,,,0.00,WUHU216HW,2013-02-04 12:57:00,
2013-02-04 07:02:00,25.0,19.4,30.12,North,0,0.0,0.0,79,0.00,,,0.00,WUHU216HW,2013-02-04 13:02:00,
2013-02-04 07:07:00,24.8,19.3,30.12,North,0,0.0,0.0,79,0.00,,,0.00,WUHU216HW,2013-02-04 13:07:00,
2013-02-04 07:12:00,24.8,19.6,30.12,North,0,0.0,0.0,80,0.00,,,0.00,WUHU216HW,2013-02-04 13:12:00,
2013-02-04 07:17:00,24.7,19.4,30.13,North,0,0.0,0.0,80,0.00,,,0.00,WUHU216HW,2013-02-04 13:17:00,
2013-02-04 07:22:00,24.5,19.3,30.13,North,0,0.0,0.0,80,0.00,,,0.00,WUHU216HW,2013-02-04 13:22:00,
2013-02-04 07:27:00,24.3,19.1,30.13,North,0,0.0,0.0,80,0.00,,,0.00,WUHU216HW,2013-02-04 13:27:00,
2013-02-04 07:32:00,24.1,18.9,30.13,North,0,0.0,0.0,80,0.00,,,0.00,WUHU216HW,2013-02-04 13:32:00,
2013-02-04 07:37:00,24.1,18.9,30.13,North,0,0.0,0.0,80,0.00,,,0.00,WUHU216HW,2013-02-04 13:37:00,
2013-02-04 07:42:00,24.1,18.9,30.14,North,0,0.0,0.0,80,0.00,,,0.00,WUHU216HW,2013-02-04 13:42:00,
2013-02-04 07:47:00,24.1,18.9,30.14,North,0,0.0,0.0,80,0.00,,,0.00,WUHU216HW,2013-02-04 13:47:00,
2013-02-04 07:52:00,23.9,19.0,30.14,North,0,0.0,0.0,81,0.00,,,0.00,WUHU216HW,2013-02-04 13:52:00,
2013-02-04 07:57:00,23.9,19.0,30.14,North,0,0.0,0.0,81,0.00,,,0.00,WUHU216HW,2013-02-04 13:57:00,
2013-02-04 08:02:00,23.8,18.5,30.14,North,0,0.0,0.0,80,0.00,,,0.00,WUHU216HW,2013-02-04 14:02:00,
2013-02-04 08:07:00,23.8,18.5,30.14,North,0,0.0,0.0,80,0.00,,,0.00,WUHU216HW,2013-02-04 14:07:00,
2013-02-04 08:12:00,23.8,18.5,30.14,North,0,0.0,0.0,80,0.00,,,0.00,WUHU216HW,2013-02-04 14:12:00,
2013-02-04 08:17:00,23.9,18.7,30.15,North,0,0.0,0.0,80,0.00,,,0.00,WUHU216HW,2013-02-04 14:17:00,
2013-02-04 08:22:00,24.3,19.1,30.15,North,0,0.0,0.0,80,0.00,,,0.00,WUHU216HW,2013-02-04 14:22:00,
2013-02-04 08:27:00,24.7,19.4,30.15,North,0,0.0,0.0,80,0.00,,,0.00,WUHU216HW,2013-02-04 14:27:00,
2013-02-04 08:32:00,24.8,19.6,30.15,North,0,0.0,0.0,80,0.00,,,0.00,WUHU216HW,2013-02-04 14:32:00,
2013-02-04 08:37:00,25.0,20.1,30.15,North,0,0.0,0.0,81,0.00,,,0.00,WUHU216HW,2013-02-04 14:37:00,
2013-02-04 08:42:00,24.8,19.9,30.15,North,0,0.0,0.0,81,0.00,,,0.00,WUHU216HW,2013-02-04 14:42:00,
2013-02-04 08:47:00,24.8,19.9,30.16,North,0,0.0,0.0,81,0.00,,,0.00,WUHU216HW,2013-02-04 14:47:00,
2013-02-04 08:52:00,24.8,19.9,30.16,North,0,0.0,0.0,81,0.00,,,0.00,WUHU216HW,2013-02-04 14:52:00,
2013-02-04 08:57:00,25.0,20.1,30.16,North,0,0.0,0.0,81,0.00,,,0.00,WUHU216HW,2013-02-04 14:57:00,
2013-02-04 09:02:00,25.4,20.3,30.16,North,0,0.0,0.0,81,0.00,,,0.00,WUHU216HW,2013-02-04 15:02:00,
2013-02-04 09:07:00,25.4,20.3,30.16,North,0,0.0,0.0,81,0.00,,,0.00,WUHU216HW,2013-02-04 15:07:00,
2013-02-04 09:12:00,25.0,20.1,30.16,North,0,0.0,0.0,81,0.00,,,0.00,WUHU216HW,2013-02-04 15:12:00,
2013-02-04 09:17:00,25.0,20.4,30.16,North,0,0.0,0.0,82,0.00,,,0.00,WUHU216HW,2013-02-04 15:17:00,
2013-02-04 09:22:00,25.2,20.5,30.16,North,0,0.0,0.0,82,0.00,,,0.00,WUHU216HW,2013-02-04 15:22:00,
2013-02-04 09:27:00,25.6,20.8,30.16,North,0,0.0,0.0,82,0.00,,,0.00,WUHU216HW,2013-02-04 15:27:00,
2013-02-04 09:32:00,25.7,21.0,30.17,North,0,0.0,0.0,82,0.00,,,0.00,WUHU216HW,2013-02-04 15:32:00,
2013-02-04 09:37:00,25.9,20.9,30.17,North,0,0.0,0.0,81,0.00,,,0.00,WUHU216HW,2013-02-04 15:37:00,
2013-02-04 09:42:00,25.9,20.6,30.17,North,0,0.0,0.0,80,0.00,,,0.00,WUHU216HW,2013-02-04 15:42:00,
2013-02-04 09:47:00,26.1,20.8,30.17,North,0,0.0,0.0,80,0.00,,,0.00,WUHU216HW,2013-02-04 15:47:00,
2013-02-04 09:52:00,25.9,20.6,30.17,North,0,0.0,0.0,80,0.00,,,0.00,WUHU216HW,2013-02-04 15:52:00,
2013-02-04 09:57:00,25.6,20.5,30.17,North,0,0.0,0.0,81,0.00,,,0.00,WUHU216HW,2013-02-04 15:57:00,
2013-02-04 10:02:00,25.2,20.0,30.18,North,0,0.0,0.0,80,0.00,,,0.00,WUHU216HW,2013-02-04 16:02:00,
2013-02-04 10:07:00,25.2,20.0,30.18,North,0,0.0,0.0,80,0.00,,,0.00,WUHU216HW,2013-02-04 16:07:00,
2013-02-04 10:12:00,25.6,20.3,30.18,North,0,0.0,0.0,80,0.00,,,0.00,WUHU216HW,2013-02-04 16:12:00,
2013-02-04 10:17:00,25.6,20.0,30.18,North,0,0.0,0.0,79,0.00,,,0.00,WUHU216HW,2013-02-04 16:17:00,
2013-02-04 10:22:00,25.6,20.3,30.19,North,0,0.0,0.0,80,0.00,,,0.00,WUHU216HW,2013-02-04 16:22:00,
2013-02-04 10:27:00,25.6,20.0,30.19,North,0,0.0,0.0,79,0.00,,,0.00,WUHU216HW,2013-02-04 16:27:00,
2013-02-04 10:32:00,25.6,20.0,30.20,North,0,0.0,0.0,79,0.00,,,0.00,WUHU216HW,2013-02-04 16:32:00,
2013-02-04 10:37:00,25.9,20.6,30.20,North,0,0.0,0.0,80,0.00,,,0.00,WUHU216HW,2013-02-04 16:37:00,
2013-02-04 10:42:00,25.7,20.1,30.20,North,0,0.0,0.0,79,0.00,,,0.00,WUHU216HW,2013-02-04 16:42:00,
2013-02-04 10:47:00,25.7,19.8,30.21,North,0,0.0,0.0,78,0.00,,,0.00,WUHU216HW,2013-02-04 16:47:00,
2013-02-04 10:52:00,25.7,20.1,30.21,North,0,0.0,0.0,79,0.00,,,0.00,WUHU216HW,2013-02-04 16:52:00,
2013-02-04 10:57:00,26.1,20.4,30.21,North,0,0.0,0.0,79,0.00,,,0.00,WUHU216HW,2013-02-04 16:57:00,
2013-02-04 11:02:00,26.1,20.2,30.22,North,0,0.0,0.0,78,0.00,,,0.00,WUHU216HW,2013-02-04 17:02:00,
2013-02-04 11:07:00,25.9,20.0,30.21,North,0,0.0,0.0,78,0.00,,,0.00,WUHU216HW,2013-02-04 17:07:00,
2013-02-04 11:12:00,25.6,19.6,30.21,North,0,0.0,0.0,78,0.00,,,0.00,WUHU216HW,2013-02-04 17:12:00,
2013-02-04 11:17:00,25.6,20.0,30.21,North,0,0.0,0.0,79,0.00,,,0.00,WUHU216HW,2013-02-04 17:17:00,
2013-02-04 11:22:00,25.6,20.0,30.21,North,0,0.0,0.0,79,0.00,,,0.00,WUHU216HW,2013-02-04 17:22:00,
2013-02-04 11:27:00,26.1,19.8,30.21,North,0,0.0,0.0,77,0.00,,,0.00,WUHU216HW,2013-02-04 17:27:00,
2013-02-04 11:32:00,26.1,19.8,30.21,North,0,0.0,0.0,77,0.00,,,0.00,WUHU216HW,2013-02-04 17:32:00,
2013-02-04 11:37:00,26.3,20.4,30.21,North,0,0.0,0.0,78,0.00,,,0.00,WUHU216HW,2013-02-04 17:37:00,
2013-02-04 11:42:00,26.6,20.4,30.21,North,0,0.0,0.0,77,0.00,,,0.00,WUHU216HW,2013-02-04 17:42:00,
2013-02-04 11:47:00,26.6,19.7,30.21,North,0,0.0,0.0,75,0.00,,,0.00,WUHU216HW,2013-02-04 17:47:00,
2013-02-04 11:52:00,26.6,19.7,30.22,North,0,0.0,0.0,75,0.00,,,0.00,WUHU216HW,2013-02-04 17:52:00,
2013-02-04 11:57:00,26.5,19.9,30.22,North,0,0.0,0.0,76,0.00,,,0.00,WUHU216HW,2013-02-04 17:57:00,
2013-02-04 12:02:00,26.5,19.5,30.22,North,0,0.0,0.0,75,0.00,,,0.00,WUHU216HW,2013-02-04 18:02:00,
2013-02-04 12:07:00,26.6,19.5,30.23,North,0,0.0,0.0,74,0.00,,,0.00,WUHU216HW,2013-02-04 18:07:00,
2013-02-04 12:12:00,26.6,19.5,30.24,North,0,0.0,0.0,74,0.00,,,0.00,WUHU216HW,2013-02-04 18:12:00,
2013-02-04 12:17:00,26.6,19.7,30.24,North,0,0.0,0.0,75,0.00,,,0.00,WUHU216HW,2013-02-04 18:17:00,
2013-02-04 12:22:00,26.8,19.9,30.24,North,0,0.0,0.0,75,0.00,,,0.00,WUHU216HW,2013-02-04 18:22:00,
2013-02-04 12:27:00,27.0,19.8,30.24,North,0,0.0,0.0,74,0.00,,,0.00,WUHU216HW,2013-02-04 18:27:00,
2013-02-04 12:32:00,27.0,19.2,30.24,North,0,0.0,0.0,72,0.00,,,0.00,WUHU216HW,2013-02-04 18:32:00,
2013-02-04 12:37:00,26.6,18.8,30.24,North,0,0.0,0.0,72,0.00,,,0.00,WUHU216HW,2013-02-04 18:37:00,
2013-02-04 12:42:00,26.3,18.7,30.23,North,0,0.0,0.0,73,0.00,,,0.00,WUHU216HW,2013-02-04 18:42:00,
2013-02-04 12:47:00,25.9,19.0,30.24,North,0,0.0,0.0,75,0.00,,,0.00,WUHU216HW,2013-02-04 18:47:00,
2013-02-04 12:52:00,26.1,19.2,30.24,North,0,0.0,0.0,75,0.00,,,0.00,WUHU216HW,2013-02-04 18:52:00,
2013-02-04 12:57:00,26.3,18.7,30.25,North,0,0.0,0.0,73,0.00,,,0.00,WUHU216HW,2013-02-04 18:57:00,
2013-02-04 13:02:00,25.9,18.7,30.25,North,0,0.0,0.0,74,0.00,,,0.00,WUHU216HW,2013-02-04 19:02:00,
2013-02-04 13:07:00,25.9,18.7,30.24,North,0,0.0,0.0,74,0.00,,,0.00,WUHU216HW,2013-02-04 19:07:00,
2013-02-04 13:12:00,25.9,18.7,30.25,North,0,0.0,0.0,74,0.00,,,0.00,WUHU216HW,2013-02-04 19:12:00,
2013-02-04 13:17:00,26.1,19.2,30.25,North,0,0.0,0.0,75,0.00,,,0.00,WUHU216HW,2013-02-04 19:17:00,
2013-02-04 13:22:00,26.1,18.9,30.25,North,0,0.0,0.0,74,0.00,,,0.00,WUHU216HW,2013-02-04 19:22:00,
2013-02-04 13:27:00,26.3,18.7,30.25,North,0,0.0,0.0,73,0.00,,,0.00,WUHU216HW,2013-02-04 19:27:00,
2013-02-04 13:32:00,26.1,18.5,30.25,North,0,0.0,0.0,73,0.00,,,0.00,WUHU216HW,2013-02-04 19:32:00,
2013-02-04 13:37:00,26.1,18.3,30.25,North,0,0.0,0.0,72,0.00,,,0.00,WUHU216HW,2013-02-04 19:37:00,
2013-02-04 13:42:00,26.1,18.5,30.25,North,0,0.0,0.0,73,0.00,,,0.00,WUHU216HW,2013-02-04 19:42:00,
2013-02-04 13:47:00,25.9,18.1,30.24,North,0,0.0,0.0,72,0.00,,,0.00,WUHU216HW,2013-02-04 19:47:00,
2013-02-04 13:52:00,25.9,18.1,30.24,North,0,0.0,0.0,72,0.00,,,0.00,WUHU216HW,2013-02-04 19:52:00,
2013-02-04 13:57:00,25.6,17.7,30.24,North,0,0.0,0.0,72,0.00,,,0.00,WUHU216HW,2013-02-04 19:57:00,
2013-02-04 14:02:00,25.6,17.7,30.24,North,0,0.0,0.0,72,0.00,,,0.00,WUHU216HW,2013-02-04 20:02:00,
2013-02-04 14:07:00,24.8,17.0,30.24,North,0,0.0,0.0,72,0.00,,,0.00,WUHU216HW,2013-02-04 20:07:00,
2013-02-04 14:12:00,24.8,17.6,30.24,North,0,0.0,0.0,74,0.00,,,0.00,WUHU216HW,2013-02-04 20:12:00,
2013-02-04 14:17:00,24.8,17.4,30.23,North,0,0.0,0.0,73,0.00,,,0.00,WUHU216HW,2013-02-04 20:17:00,
2013-02-04 14:22:00,24.8,17.4,30.22,North,0,0.0,0.0,73,0.00,,,0.00,WUHU216HW,2013-02-04 20:22:00,
2013-02-04 14:27:00,24.8,17.4,30.22,North,0,0.0,0.0,73,0.00,,,0.00,WUHU216HW,2013-02-04 20:27:00,
2013-02-04 14:32:00,24.8,17.6,30.22,North,0,0.0,0.0,74,0.00,,,0.00,WUHU216HW,2013-02-04 20:32:00,
2013-02-04 14:37:00,24.8,17.4,30.21,North,0,0.0,0.0,73,0.00,,,0.00,WUHU216HW,2013-02-04 20:37:00,
2013-02-04 14:42:00,24.8,17.6,30.21,North,0,0.0,0.0,74,0.00,,,0.00,WUHU216HW,2013-02-04 20:42:00,
2013-02-04 14:47:00,24.8,17.4,30.21,North,0,0.0,0.0,73,0.00,,,0.00,WUHU216HW,2013-02-04 20:47:00,
2013-02-04 14:52:00,25.2,18.0,30.22,North,0,0.0,0.0,74,0.00,,,0.00,WUHU216HW,2013-02-04 20:52:00,
2013-02-04 14:57:00,25.2,18.0,30.22,North,0,0.0,0.0,74,0.00,,,0.00,WUHU216HW,2013-02-04 20:57:00,
2013-02-04 15:02:00,25.2,17.7,30.23,North,0,0.0,0.0,73,0.00,,,0.00,WUHU216HW,2013-02-04 21:02:00,
2013-02-04 15:07:00,25.2,17.4,30.24,North,0,0.0,0.0,72,0.00,,,0.00,WUHU216HW,2013-02-04 21:07:00,
2013-02-04 15:12:00,25.2,17.4,30.24,North,0,0.0,0.0,72,0.00,,,0.00,WUHU216HW,2013-02-04 21:12:00,
2013-02-04 15:17:00,25.2,17.7,30.24,North,0,0.0,0.0,73,0.00,,,0.00,WUHU216HW,2013-02-04 21:17:00,
2013-02-04 15:22:00,25.6,18.1,30.24,North,0,0.0,0.0,73,0.00,,,0.00,WUHU216HW,2013-02-04 21:22:00,
2013-02-04 15:27:00,25.4,17.6,30.24,North,0,0.0,0.0,72,0.00,,,0.00,WUHU216HW,2013-02-04 21:27:00,
2013-02-04 15:32:00,25.4,17.9,30.24,North,0,0.0,0.0,73,0.00,,,0.00,WUHU216HW,2013-02-04 21:32:00,
2013-02-04 15:37:00,25.4,18.2,30.24,North,0,0.0,0.0,74,0.00,,,0.00,WUHU216HW,2013-02-04 21:37:00,
2013-02-04 15:42:00,25.4,18.2,30.24,North,0,0.0,0.0,74,0.00,,,0.00,WUHU216HW,2013-02-04 21:42:00,
2013-02-04 15:47:00,25.2,18.0,30.24,North,0,0.0,0.0,74,0.00,,,0.00,WUHU216HW,2013-02-04 21:47:00,
2013-02-04 15:52:00,25.2,17.7,30.24,North,0,0.0,0.0,73,0.00,,,0.00,WUHU216HW,2013-02-04 21:52:00,
2013-02-04 15:57:00,25.0,17.6,30.24,North,0,0.0,0.0,73,0.00,,,0.00,WUHU216HW,2013-02-04 21:57:00,
2013-02-04 16:02:00,25.0,17.8,30.24,North,0,0.0,0.0,74,0.00,,,0.00,WUHU216HW,2013-02-04 22:02:00,
2013-02-04 16:07:00,24.8,17.6,30.25,North,0,0.0,0.0,74,0.00,,,0.00,WUHU216HW,2013-02-04 22:07:00,
2013-02-04 16:12:00,24.5,17.6,30.25,North,0,0.0,0.0,75,0.00,,,0.00,WUHU216HW,2013-02-04 22:12:00,
2013-02-04 16:17:00,24.5,17.6,30.25,North,0,0.0,0.0,75,0.00,,,0.00,WUHU216HW,2013-02-04 22:17:00,
2013-02-04 16:22:00,24.1,17.3,30.25,North,0,0.0,0.0,75,0.00,,,0.00,WUHU216HW,2013-02-04 22:22:00,
2013-02-04 16:27:00,24.1,17.3,30.26,North,0,0.0,0.0,75,0.00,,,0.00,WUHU216HW,2013-02-04 22:27:00,
2013-02-04 16:32:00,23.9,17.1,30.26,North,0,0.0,0.0,75,0.00,,,0.00,WUHU216HW,2013-02-04 22:32:00,
2013-02-04 16:37:00,23.8,17.0,30.27,North,0,0.0,0.0,75,0.00,,,0.00,WUHU216HW,2013-02-04 22:37:00,
2013-02-04 16:42:00,23.6,16.8,30.27,North,0,0.0,0.0,75,0.00,,,0.00,WUHU216HW,2013-02-04 22:42:00,
2013-02-04 16:47:00,23.6,16.8,30.27,North,0,0.0,0.0,75,0.00,,,0.00,WUHU216HW,2013-02-04 22:47:00,
2013-02-04 16:52:00,23.4,16.7,30.27,North,0,0.0,0.0,75,0.00,,,0.00,WUHU216HW,2013-02-04 22:52:00,
2013-02-04 16:57:00,23.4,16.9,30.27,North,0,0.0,0.0,76,0.00,,,0.00,WUHU216HW,2013-02-04 22:57:00,
2013-02-04 17:02:00,23.4,16.9,30.28,North,0,0.0,0.0,76,0.00,,,0.00,WUHU216HW,2013-02-04 23:02:00,
2013-02-04 17:07:00,23.4,16.9,30.28,North,0,0.0,0.0,76,0.00,,,0.00,WUHU216HW,2013-02-04 23:07:00,
2013-02-04 17:12:00,23.0,16.6,30.28,North,0,0.0,0.0,76,0.00,,,0.00,WUHU216HW,2013-02-04 23:12:00,
2013-02-04 17:17:00,22.9,16.4,30.28,North,0,0.0,0.0,76,0.00,,,0.00,WUHU216HW,2013-02-04 23:17:00,
2013-02-04 17:22:00,22.5,16.0,30.28,North,0,0.0,0.0,76,0.00,,,0.00,WUHU216HW,2013-02-04 23:22:00,
2013-02-04 17:27:00,22.1,15.7,30.28,North,0,0.0,0.0,76,0.00,,,0.00,WUHU216HW,2013-02-04 23:27:00,
2013-02-04 17:32:00,22.0,15.5,30.28,North,0,0.0,0.0,76,0.00,,,0.00,WUHU216HW,2013-02-04 23:32:00,
2013-02-04 17:37:00,22.0,15.5,30.29,North,0,0.0,0.0,76,0.00,,,0.00,WUHU216HW,2013-02-04 23:37:00,
2013-02-04 17:42:00,21.8,15.7,30.29,North,0,0.0,0.0,77,0.00,,,0.00,WUHU216HW,2013-02-04 23:42:00,
2013-02-04 17:47:00,21.6,15.5,30.29,North,0,0.0,0.0,77,0.00,,,0.00,WUHU216HW,2013-02-04 23:47:00,
2013-02-04 17:52:00,21.4,15.3,30.28,North,0,0.0,0.0,77,0.00,,,0.00,WUHU216HW,2013-02-04 23:52:00,
2013-02-04 17:57:00,21.2,15.1,30.29,North,0,0.0,0.0,77,0.00,,,0.00,WUHU216HW,2013-02-04 23:57:00,
2013-02-04 18:02:00,21.1,15.0,30.29,North,0,0.0,0.0,77,0.00,,,0.00,WUHU216HW,2013-02-05 00:02:00,
2013-02-04 18:07:00,20.9,14.8,30.29,North,0,0.0,0.0,77,0.00,,,0.00,WUHU216HW,2013-02-05 00:07:00,
2013-02-04 18:12:00,20.7,14.6,30.29,North,0,0.0,0.0,77,0.00,,,0.00,WUHU216HW,2013-02-05 00:12:00,
2013-02-04 18:17:00,20.5,14.4,30.29,North,0,0.0,0.0,77,0.00,,,0.00,WUHU216HW,2013-02-05 00:17:00,
2013-02-04 18:22:00,20.5,14.4,30.29,North,0,0.0,0.0,77,0.00,,,0.00,WUHU216HW,2013-02-05 00:22:00,
2013-02-04 18:27:00,20.2,14.3,30.28,North,0,0.0,0.0,78,0.00,,,0.00,WUHU216HW,2013-02-05 00:27:00,
2013-02-04 18:32:00,20.2,14.3,30.28,North,0,0.0,0.0,78,0.00,,,0.00,WUHU216HW,2013-02-05 00:32:00,
2013-02-04 18:37:00,20.0,14.1,30.28,North,0,0.0,0.0,78,0.00,,,0.00,WUHU216HW,2013-02-05 00:37:00,
2013-02-04 18:42:00,19.8,14.0,30.29,North,0,0.0,0.0,78,0.00,,,0.00,WUHU216HW,2013-02-05 00:42:00,
2013-02-04 18:47:00,19.8,14.0,30.29,North,0,0.0,0.0,78,0.00,,,0.00,WUHU216HW,2013-02-05 00:47:00,
2013-02-04 18:52:00,19.8,14.0,30.29,North,0,0.0,0.0,78,0.00,,,0.00,WUHU216HW,2013-02-05 00:52:00,
2013-02-04 18:57:00,19.8,14.0,30.30,North,0,0.0,0.0,78,0.00,,,0.00,WUHU216HW,2013-02-05 00:57:00,
2013-02-04 19:02:00,19.8,14.0,30.30,North,0,0.0,0.0,78,0.00,,,0.00,WUHU216HW,2013-02-05 01:02:00,
2013-02-04 19:07:00,19.8,14.0,30.30,North,0,0.0,0.0,78,0.00,,,0.00,WUHU216HW,2013-02-05 01:07:00,
2013-02-04 19:12:00,19.8,14.0,30.30,North,0,0.0,0.0,78,0.00,,,0.00,WUHU216HW,2013-02-05 01:12:00,
2013-02-04 19:17:00,19.8,14.3,30.31,North,0,0.0,0.0,79,0.00,,,0.00,WUHU216HW,2013-02-05 01:17:00,
2013-02-04 19:22:00,20.0,14.5,30.31,North,0,0.0,0.0,79,0.00,,,0.00,WUHU216HW,2013-02-05 01:22:00,
2013-02-04 19:27:00,20.0,14.5,30.31,North,0,0.0,0.0,79,0.00,,,0.00,WUHU216HW,2013-02-05 01:27:00,
2013-02-04 19:32:00,20.0,14.5,30.30,North,0,0.0,0.0,79,0.00,,,0.00,WUHU216HW,2013-02-05 01:32:00,
2013-02-04 19:37:00,20.2,14.7,30.31,North,0,0.0,0.0,79,0.00,,,0.00,WUHU216HW,2013-02-05 01:37:00,
2013-02-04 19:42:00,20.2,14.3,30.31,North,0,0.0,0.0,78,0.00,,,0.00,WUHU216HW,2013-02-05 01:42:00,
2013-02-04 19:47:00,20.0,14.1,30.31,North,0,0.0,0.0,78,0.00,,,0.00,WUHU216HW,2013-02-05 01:47:00,
2013-02-04 19:52:00,20.0,14.1,30.30,North,0,0.0,0.0,78,0.00,,,0.00,WUHU216HW,2013-02-05 01:52:00,
2013-02-04 19:57:00,19.8,14.0,30.30,North,0,0.0,0.0,78,0.00,,,0.00,WUHU216HW,2013-02-05 01:57:00,
2013-02-04 20:02:00,19.8,14.0,30.31,North,0,0.0,0.0,78,0.00,,,0.00,WUHU216HW,2013-02-05 02:02:00,
2013-02-04 20:07:00,19.8,14.0,30.31,North,0,0.0,0.0,78,0.00,,,0.00,WUHU216HW,2013-02-05 02:07:00,
2013-02-04 20:12:00,19.8,14.0,30.31,North,0,0.0,0.0,78,0.00,,,0.00,WUHU216HW,2013-02-05 02:12:00,
2013-02-04 20:17:00,19.6,13.8,30.30,North,0,0.0,0.0,78,0.00,,,0.00,WUHU216HW,2013-02-05 02:17:00,
2013-02-04 20:22:00,19.4,13.6,30.30,North,0,0.0,0.0,78,0.00,,,0.00,WUHU216HW,2013-02-05 02:22:00,
2013-02-04 20:27:00,19.3,13.4,30.30,North,0,0.0,0.0,78,0.00,,,0.00,WUHU216HW,2013-02-05 02:27:00,
2013-02-04 20:32:00,19.1,13.2,30.30,North,0,0.0,0.0,78,0.00,,,0.00,WUHU216HW,2013-02-05 02:32:00,
2013-02-04 20:37:00,18.7,12.9,30.30,North,0,0.0,0.0,78,0.00,,,0.00,WUHU216HW,2013-02-05 02:37:00,
2013-02-04 20:42:00,18.7,12.9,30.30,North,0,0.0,0.0,78,0.00,,,0.00,WUHU216HW,2013-02-05 02:42:00,
2013-02-04 20:47:00,18.5,12.7,30.30,North,0,0.0,0.0,78,0.00,,,0.00,WUHU216HW,2013-02-05 02:47:00,
2013-02-04 20:52:00,18.4,12.5,30.30,North,0,0.0,0.0,78,0.00,,,0.00,WUHU216HW,2013-02-05 02:52:00,
2013-02-04 20:57:00,18.0,12.3,30.30,North,0,0.0,0.0,78,0.00,,,0.00,WUHU216HW,2013-02-05 02:57:00,
2013-02-04 21:02:00,17.6,12.2,30.30,North,0,0.0,0.0,79,0.00,,,0.00,WUHU216HW,2013-02-05 03:02:00,
2013-02-04 21:07:00,17.5,12.0,30.30,North,0,0.0,0.0,79,0.00,,,0.00,WUHU216HW,2013-02-05 03:07:00,
2013-02-04 21:12:00,17.1,11.6,30.30,North,0,0.0,0.0,79,0.00,,,0.00,WUHU216HW,2013-02-05 03:12:00,
2013-02-04 21:17:00,16.9,11.5,30.30,North,0,0.0,0.0,79,0.00,,,0.00,WUHU216HW,2013-02-05 03:17:00,
2013-02-04 21:22:00,16.9,11.8,30.30,North,0,0.0,0.0,80,0.00,,,0.00,WUHU216HW,2013-02-05 03:22:00,
2013-02-04 21:27:00,16.9,11.8,30.30,North,0,0.0,0.0,80,0.00,,,0.00,WUHU216HW,2013-02-05 03:27:00,
2013-02-04 21:32:00,16.7,11.6,30.30,North,0,0.0,0.0,80,0.00,,,0.00,WUHU216HW,2013-02-05 03:32:00,
2013-02-04 21:37:00,16.4,11.0,30.30,North,0,0.0,0.0,79,0.00,,,0.00,WUHU216HW,2013-02-05 03:37:00,
2013-02-04 21:42:00,16.2,10.8,30.30,North,0,0.0,0.0,79,0.00,,,0.00,WUHU216HW,2013-02-05 03:42:00,
2013-02-04 21:47:00,16.0,10.6,30.29,North,0,0.0,0.0,79,0.00,,,0.00,WUHU216HW,2013-02-05 03:47:00,
2013-02-04 21:52:00,15.8,10.5,30.29,North,0,0.0,0.0,79,0.00,,,0.00,WUHU216HW,2013-02-05 03:52:00,
2013-02-04 21:57:00,15.7,10.6,30.29,North,0,0.0,0.0,80,0.00,,,0.00,WUHU216HW,2013-02-05 03:57:00,
2013-02-04 22:02:00,15.5,10.4,30.30,North,0,0.0,0.0,80,0.00,,,0.00,WUHU216HW,2013-02-05 04:02:00,
2013-02-04 22:07:00,15.5,10.4,30.30,North,0,0.0,0.0,80,0.00,,,0.00,WUHU216HW,2013-02-05 04:07:00,
2013-02-04 22:12:00,15.5,10.4,30.30,North,0,0.0,0.0,80,0.00,,,0.00,WUHU216HW,2013-02-05 04:12:00,
2013-02-04 22:17:00,15.3,10.3,30.30,North,0,0.0,0.0,80,0.00,,,0.00,WUHU216HW,2013-02-05 04:17:00,
2013-02-04 22:22:00,15.1,10.1,30.30,North,0,0.0,0.0,80,0.00,,,0.00,WUHU216HW,2013-02-05 04:22:00,
2013-02-04 22:27:00,15.1,10.4,30.29,North,0,0.0,0.0,81,0.00,,,0.00,WUHU216HW,2013-02-05 04:27:00,
2013-02-04 22:32:00,15.1,10.4,30.30,North,0,0.0,0.0,81,0.00,,,0.00,WUHU216HW,2013-02-05 04:32:00,
2013-02-04 22:37:00,14.9,10.2,30.29,North,0,0.0,0.0,81,0.00,,,0.00,WUHU216HW,2013-02-05 04:37:00,
2013-02-04 22:42:00,15.1,10.4,30.29,North,0,0.0,0.0,81,0.00,,,0.00,WUHU216HW,2013-02-05 04:42:00,
2013-02-04 22:47:00,15.1,10.4,30.28,North,0,0.0,0.0,81,0.00,,,0.00,WUHU216HW,2013-02-05 04:47:00,
2013-02-04 22:52:00,15.1,10.4,30.28,North,0,0.0,0.0,81,0.00,,,0.00,WUHU216HW,2013-02-05 04:52:00,
2013-02-04 22:57:00,14.9,10.2,30.28,North,0,0.0,0.0,81,0.00,,,0.00,WUHU216HW,2013-02-05 04:57:00,
2013-02-04 23:00:00,14.9,10.2,30.28,North,0,0.0,0.0,81,0.00,,,0.00,WUHU216HW,2013-02-05 05:00:00,
2013-02-04 23:05:00,14.9,10.2,30.27,North,0,0.0,0.0,81,0.00,,,0.00,WUHU216HW,2013-02-05 05:05:00,
2013-02-04 23:10:00,14.8,10.0,30.27,North,0,0.0,0.0,81,0.00,,,0.00,WUHU216HW,2013-02-05 05:10:00,
2013-02-04 23:15:00,14.4,9.6,30.27,North,0,0.0,0.0,81,0.00,,,0.00,WUHU216HW,2013-02-05 05:15:00,
2013-02-04 23:20:00,14.4,9.6,30.28,North,0,0.0,0.0,81,0.00,,,0.00,WUHU216HW,2013-02-05 05:20:00,
2013-02-04 23:25:00,14.6,9.8,30.28,North,0,0.0,0.0,81,0.00,,,0.00,WUHU216HW,2013-02-05 05:25:00,
2013-02-04 23:30:00,14.8,10.0,30.27,North,0,0.0,0.0,81,0.00,,,0.00,WUHU216HW,2013-02-05 05:30:00,
2013-02-04 23:35:00,14.9,10.5,30.27,North,0,0.0,0.0,82,0.00,,,0.00,WUHU216HW,2013-02-05 05:35:00,
2013-02-04 23:40:00,14.9,10.2,30.27,North,0,0.0,0.0,81,0.00,,,0.00,WUHU216HW,2013-02-05 05:40:00,
2013-02-04 23:45:00,14.9,10.2,30.26,North,0,0.0,0.0,81,0.00,,,0.00,WUHU216HW,2013-02-05 05:45:00,
2013-02-04 23:50:00,14.9,10.2,30.26,North,0,0.0,0.0,81,0.00,,,0.00,WUHU216HW,2013-02-05 05:50:00,
2013-02-04 23:55:00,14.9,10.2,30.27,North,0,0.0,0.0,81,0.00,,,0.00,WUHU216HW,2013-02-05 05:55:00,